Hourly Data Report for June 12, 2021

LONDON CS
ONTARIO
Current Station Operator: ECCC - MSC

43°02'00.000" N
81°09'00.000" W
278.00 m
6144478
71622
WSN

Download Data

Hourly Data (June 2021)
Hourly Data Report for June 12, 2021
TIME
LST
Temp Definition
°C
Dew Point Definition
°C
Rel Hum Definition
%
Precip. Amount Definition
mm

Wind Dir Definition
10's deg

Wind Spd Definition
km/h
Visibility Definition
km
Stn Press Definition
kPa
Hmdx Definition


Wind Chill Definition


Weather Definition


00:00 17.4 12.5 73 0.0       97.91     LegendNANA
01:00 16.9 12.9 77 0.0       97.87     LegendNANA
02:00 16.3 13.1 82 0.0       97.86     LegendNANA
03:00 15.9 13.1 83 0.0       97.86     LegendNANA
04:00 16.1 13.1 82 0.0       97.89     LegendNANA
05:00 17.0 12.8 76 0.0       97.93     LegendNANA
06:00 17.1 12.7 75 0.0       97.94     LegendNANA
07:00 17.8 12.6 72 0.0       98.00     LegendNANA
08:00 18.9 12.8 68 0.0       98.03     LegendNANA
09:00 20.3 14.1 67 0.0       98.03     LegendNANA
10:00 21.3 14.7 66 0.0       98.00 25   LegendNANA
11:00 23.3 15.4 61 0.0       97.95 28   LegendNANA
12:00 24.1 15.1 57 0.0       97.99 28   LegendNANA
13:00 25.5 16.3 57 0.0       97.94 30   LegendNANA
14:00 25.3 15.8 56 0.0       97.93 30   LegendNANA
15:00 25.6 15.5 54 0.0       97.92 30   LegendNANA
16:00 25.5 16.5 57 0.0       97.87 30   LegendNANA
17:00 26.0 16.6 56 0.0       97.84 31   LegendNANA
18:00 25.6 17.6 61 0.0       97.82 31   LegendNANA
19:00 24.0 17.2 66 0.0       97.83 29   LegendNANA
20:00 22.5 17.0 71 0.0       97.87 28   LegendNANA
21:00 20.9 15.8 73 0.0       97.89 25   LegendNANA
22:00 20.4 15.5 74 0.0       97.96 25   LegendNANA
23:00 19.4 15.6 78 0.0       97.92     LegendNANA

Notes on Data Quality.

Legend

  • E = Estimated
  • M = Missing
  • NA = Not Available*
  • [empty] = Indicates an unobserved value
Date modified: